Total_Precipitation_Accumulation
0.00 0.01 0.01 0.04 0.06 0.09 0.13 0.19 0.29 0.39 0.45 0.45 0.46 0.57 0.61 0.58 0.93 1.76 1.23 0.74 0.58 0.45 0.29 0.20 0.17 0.15 0.15 0.13 0.14 0.15 0.15 0.14 0.13 0.12 0.11 0.10 0.10 0.10 0.11 0.11 0.12 0.16 0.18 0.17 0.16 0.15 0.14 0.13 0.12
0.01 0.01 0.01 0.03 0.06 0.08 0.10 0.17 0.30 0.44 0.48 0.44 0.45 0.48 0.50 0.55 0.53 0.60 0.63 0.52 0.47 0.41 0.37 0.27 0.23 0.18 0.15 0.14 0.14 0.16 0.16 0.15 0.13 0.12 0.11 0.10 0.10 0.11 0.13 0.14 0.15 0.20 0.22 0.21 0.17 0.14 0.12 0.11 0.12
0.01 0.01 0.02 0.02 0.04 0.06 0.14 0.22 0.32 0.45 0.51 0.47 0.55 0.67 0.72 0.65 0.60 0.57 0.53 0.44 0.38 0.33 0.32 0.33 0.26 0.21 0.19 0.17 0.18 0.20 0.20 0.17 0.15 0.15 0.15 0.15 0.14 0.14 0.16 0.21 0.24 0.24 0.25 0.26 0.24 0.20 0.17 0.15 0.13
0.00 0.01 0.01 0.02 0.03 0.04 0.12 0.25 0.36 0.43 0.52 0.52 0.55 0.83 0.88 0.62 0.61 0.57 0.57 0.42 0.33 0.35 0.33 0.31 0.29 0.26 0.27 0.26 0.23 0.22 0.22 0.20 0.20 0.19 0.19 0.18 0.18 0.19 0.22 0.30 0.35 0.33 0.31 0.34 0.33 0.30 0.23 0.18 0.17
0.01 0.02 0.03 0.02 0.03 0.05 0.11 0.22 0.38 0.46 0.52 0.52 0.55 0.84 1.06 0.86 0.70 0.63 0.52 0.36 0.31 0.38 0.41 0.33 0.37 0.36 0.35 0.34 0.31 0.30 0.27 0.27 0.29 0.28 0.25 0.23 0.23 0.26 0.30 0.37 0.40 0.40 0.39 0.39 0.36 0.29 0.21 0.18 0.19
0.01 0.03 0.06 0.04 0.04 0.07 0.12 0.15 0.30 0.50 0.58 0.60 0.64 0.97 1.42 1.34 0.90 0.63 0.56 0.49 0.42 0.41 0.36 0.37 0.40 0.43 0.41 0.40 0.41 0.40 0.37 0.35 0.34 0.34 0.33 0.29 0.28 0.30 0.36 0.40 0.42 0.43 0.40 0.36 0.32 0.27 0.24 0.23 0.24
0.01 0.04 0.06 0.05 0.05 0.11 0.15 0.18 0.30 0.42 0.53 0.61 0.64 1.07 1.39 1.34 1.09 0.83 0.77 0.66 0.56 0.50 0.49 0.53 0.58 0.58 0.57 0.57 0.55 0.51 0.47 0.43 0.39 0.37 0.32 0.29 0.30 0.34 0.38 0.44 0.49 0.47 0.39 0.35 0.33 0.30 0.27 0.26 0.26
0.02 0.05 0.04 0.04 0.06 0.14 0.19 0.24 0.32 0.36 0.54 0.58 0.63 1.03 1.42 1.47 1.25 1.22 1.21 1.08 0.94 0.87 0.88 0.91 0.90 0.82 0.71 0.65 0.66 0.64 0.58 0.53 0.46 0.38 0.33 0.34 0.38 0.45 0.52 0.49 0.50 0.49 0.45 0.41 0.41 0.37 0.31 0.30 0.29
0.01 0.04 0.04 0.03 0.06 0.14 0.22 0.30 0.34 0.39 0.51 0.74 0.75 0.89 1.26 1.40 1.39 1.46 1.51 1.40 1.47 1.49 1.45 1.29 1.20 1.03 1.00 0.91 0.71 0.73 0.70 0.65 0.56 0.51 0.45 0.48 0.61 0.77 0.84 0.69 0.71 0.65 0.60 0.58 0.58 0.53 0.49 0.44 0.39
0.01 0.03 0.04 0.04 0.06 0.13 0.21 0.30 0.32 0.43 0.55 0.85 0.94 1.01 1.26 1.46 1.71 1.79 1.67 1.61 1.74 1.95 1.83 1.54 1.50 1.45 1.29 1.12 1.02 0.98 0.86 0.84 0.77 0.87 0.77 0.85 1.16 1.28 1.12 1.11 0.99 0.98 0.93 0.82 0.82 0.78 0.65 0.58 0.59
0.01 0.03 0.05 0.08 0.11 0.19 0.25 0.34 0.37 0.47 0.75 0.98 1.18 1.39 1.49 1.70 1.89 2.04 2.04 1.95 1.99 1.96 1.74 1.72 1.82 1.73 1.68 1.65 1.55 1.38 1.32 1.28 1.15 1.26 1.25 1.33 1.35 1.28 1.31 1.43 1.35 1.27 1.21 1.24 1.26 1.06 0.89 0.91 0.97
0.01 0.05 0.08 0.12 0.18 0.25 0.33 0.44 0.55 0.57 0.79 1.08 1.21 1.55 1.82 2.06 2.14 2.26 2.39 2.25 2.32 2.20 1.94 1.85 1.78 1.84 1.96 1.91 1.86 1.86 1.82 1.79 1.69 1.65 1.48 1.64 1.72 1.76 1.75 1.88 1.86 1.87 1.88 1.86 1.74 1.56 1.41 1.29 1.25
0.03 0.04 0.08 0.18 0.22 0.28 0.39 0.52 0.58 0.67 0.76 0.92 1.13 1.37 1.49 1.77 2.12 2.64 2.67 2.78 2.88 2.75 2.46 2.20 2.17 2.11 2.11 2.21 2.23 2.01 2.09 2.09 2.22 2.16 1.91 1.97 2.04 2.09 2.26 2.26 2.34 2.30 2.46 2.39 2.19 1.93 1.81 1.65 1.41
0.05 0.07 0.09 0.16 0.23 0.33 0.44 0.54 0.55 0.73 0.88 0.90 1.01 1.17 1.46 1.61 1.81 2.32 2.77 2.94 3.04 3.08 2.85 2.56 2.40 2.36 2.27 2.45 2.63 2.51 2.34 2.36 2.37 2.42 2.29 2.31 2.38 2.48 2.56 2.59 2.65 2.52 2.54 2.57 2.46 2.17 2.02 1.87 1.67
0.05 0.10 0.16 0.19 0.20 0.26 0.36 0.55 0.59 0.67 0.92 1.07 1.06 1.15 1.44 1.81 2.01 2.42 2.82 3.14 3.38 3.29 2.97 2.90 2.67 2.78 2.89 3.11 3.04 3.03 2.97 2.91 2.83 2.73 2.75 2.68 2.71 2.81 2.82 2.99 3.03 2.90 2.82 2.75 2.67 2.52 2.28 2.16 2.06
0.08 0.16 0.26 0.26 0.24 0.20 0.33 0.63 0.70 0.70 0.94 1.08 1.19 1.28 1.48 1.79 2.11 2.47 2.76 2.95 3.24 3.26 3.20 3.27 3.06 3.05 3.21 3.24 3.18 3.23 3.43 3.39 3.25 3.12 3.15 3.06 3.08 3.19 3.35 3.30 3.16 3.05 2.95 2.91 3.02 2.85 2.56 2.48 2.51
0.09 0.16 0.22 0.28 0.26 0.25 0.33 0.59 0.67 0.70 0.89 1.06 1.09 1.21 1.35 1.52 1.83 2.24 2.69 2.95 3.09 3.18 3.10 3.26 3.42 3.22 3.36 3.45 3.46 3.51 3.64 3.70 3.70 3.66 3.55 3.49 3.53 3.53 3.68 3.63 3.43 3.23 3.15 3.15 2.96 2.96 2.86 2.87 2.79
0.09 0.10 0.14 0.20 0.22 0.26 0.34 0.54 0.68 0.71 0.94 1.02 1.14 1.12 1.25 1.47 1.80 2.17 2.71 3.03 3.09 3.22 3.23 3.29 3.56 3.49 3.73 3.82 3.61 3.61 3.63 3.71 3.80 3.92 3.94 4.03 4.05 3.99 3.97 3.85 3.71 3.57 3.42 3.31 3.18 3.16 3.11 2.96 2.82
0.08 0.09 0.14 0.17 0.21 0.29 0.40 0.58 0.75 0.82 1.00 1.08 1.22 1.25 1.49 1.58 1.75 2.17 2.65 3.02 3.40 3.45 3.53 3.48 3.56 3.74 3.86 3.98 3.96 4.09 4.01 3.97 4.18 4.38 4.44 4.56 4.60 4.44 4.39 4.28 4.14 3.91 3.65 3.46 3.29 3.18 3.04 2.81 2.71
0.08 0.10 0.18 0.26 0.28 0.38 0.48 0.64 0.83 0.94 0.95 1.15 1.37 1.38 1.82 1.97 1.97 2.20 2.70 3.08 3.42 3.62 3.69 3.80 3.89 3.90 4.01 4.39 4.80 5.13 5.37 5.40 5.32 5.40 5.41 5.26 5.13 5.02 4.84 4.74 4.52 4.19 3.91 3.62 3.38 3.17 2.92 2.68 2.63
0.10 0.12 0.20 0.33 0.34 0.44 0.58 0.96 1.08 1.05 1.07 1.24 1.48 1.54 1.89 2.14 2.26 2.12 2.27 2.68 3.10 3.41 3.62 3.69 3.93 4.25 4.70 5.24 5.66 5.96 6.23 6.33 6.11 5.86 5.74 5.51 5.27 5.10 4.75 4.50 4.40 4.14 3.75 3.49 3.33 3.15 2.93 2.70 2.59
0.10 0.10 0.17 0.24 0.32 0.50 0.55 1.06 1.29 1.25 1.32 1.43 1.53 1.47 1.66 1.75 1.99 2.15 2.17 2.40 2.74 3.03 3.30 3.56 3.83 4.41 5.25 5.91 6.35 6.69 6.79 6.73 6.56 6.31 5.93 5.44 5.06 4.71 4.42 4.15 3.87 3.62 3.32 3.09 2.91 2.82 2.78 2.68 2.51
0.05 0.07 0.13 0.17 0.22 0.38 0.46 0.89 1.24 1.27 1.43 1.57 1.65 1.52 1.57 1.72 1.73 1.83 1.92 2.09 2.46 2.78 3.04 3.38 3.73 4.36 5.05 5.68 6.27 6.67 6.78 6.68 6.44 5.99 5.48 4.94 4.46 4.05 3.71 3.43 3.16 2.92 2.65 2.44 2.27 2.25 2.37 2.42 2.38
0.04 0.08 0.16 0.23 0.34 0.55 0.49 0.75 1.32 1.53 1.66 1.81 1.77 1.82 2.01 1.92 1.76 1.73 1.73 1.80 2.02 2.34 2.61 3.00 3.39 3.91 4.46 4.85 5.37 5.74 5.90 5.81 5.45 4.93 4.34 3.93 3.64 3.34 3.01 2.74 2.50 2.25 2.01 1.87 1.80 1.77 1.82 1.96 2.05
0.06 0.14 0.40 0.50 0.58 0.63 0.47 0.84 1.54 1.76 1.71 1.81 1.86 1.98 2.08 1.95 1.88 1.74 1.70 1.70 1.80 2.00 2.27 2.53 2.76 3.19 3.47 3.79 4.22 4.48 4.49 4.33 4.08 3.82 3.58 3.18 2.78 2.45 2.22 1.98 1.80 1.61 1.53 1.50 1.51 1.51 1.56 1.60 1.67
0.05 0.12 0.43 0.70 0.67 0.65 0.73 1.33 1.91 1.86 1.70 1.64 1.72 1.84 1.86 1.67 1.61 1.61 1.61 1.65 1.77 1.75 1.87 2.04 2.15 2.35 2.51 2.65 2.87 2.93 2.89 2.81 2.80 2.68 2.43 2.17 1.87 1.60 1.47 1.36 1.23 1.17 1.16 1.12 1.17 1.23 1.30 1.35 1.37
0.07 0.11 0.17 0.36 0.44 0.73 1.22 1.77 2.14 1.91 1.82 1.74 1.60 1.47 1.59 1.51 1.40 1.46 1.53 1.57 1.66 1.61 1.58 1.64 1.66 1.66 1.71 1.73 1.82 1.88 1.88 1.88 1.85 1.77 1.63 1.51 1.39 1.22 1.11 1.07 1.02 0.98 0.99 0.99 1.00 0.98 0.98 1.07 1.16
0.08 0.11 0.18 0.35 0.72 1.01 1.38 1.88 2.35 2.30 2.21 2.14 1.89 1.58 1.64 1.59 1.53 1.43 1.36 1.44 1.53 1.46 1.42 1.46 1.49 1.36 1.27 1.22 1.24 1.26 1.32 1.30 1.30 1.28 1.20 1.16 1.14 1.07 0.97 0.86 0.82 0.79 0.78 0.84 0.90 0.89 0.85 0.87 0.89
0.12 0.14 0.21 0.40 0.60 0.99 1.63 2.22 2.19 2.41 2.49 2.30 1.98 1.69 1.68 1.61 1.56 1.54 1.49 1.40 1.37 1.37 1.37 1.30 1.24 1.19 1.13 1.09 1.07 1.02 0.98 0.96 0.95 0.92 0.87 0.85 0.83 0.81 0.76 0.70 0.66 0.63 0.62 0.66 0.75 0.79 0.79 0.80 0.78
0.17 0.19 0.23 0.49 0.58 0.71 1.37 2.28 2.23 2.42 2.51 2.31 2.25 2.05 1.85 1.82 1.68 1.59 1.53 1.43 1.40 1.27 1.22 1.19 1.14 1.04 0.98 0.98 0.95 0.87 0.82 0.82 0.83 0.79 0.72 0.66 0.67 0.69 0.68 0.63 0.58 0.52 0.54 0.61 0.64 0.65 0.63 0.68 0.69